Time,TemperatureF,DewpointF,PressureIn,WindDirection,WindDirectionDegrees,WindSpeedMPH,WindSpeedGustMPH,Humidity,HourlyPrecipIn,Conditions,Clouds,dailyrainin,SoftwareType,DateUTC
2013-08-19 00:01:00,72.3,60.3,30.05,SSW,202,0.0,0.0,66,0.00,CLR,,0.00,WeatherDisplay:10.37,2013-08-19 05:01:00,
2013-08-19 00:06:00,72.3,60.3,30.05,SSW,202,0.0,0.0,66,0.00,CLR,,0.00,WeatherDisplay:10.37,2013-08-19 05:06:00,
2013-08-19 00:11:00,72.3,60.3,30.05,SSW,202,0.0,0.0,66,0.00,CLR,,0.00,WeatherDisplay:10.37,2013-08-19 05:11:00,
2013-08-19 00:16:00,72.3,60.3,30.05,SSW,202,0.0,0.0,66,0.00,CLR,,0.00,WeatherDisplay:10.37,2013-08-19 05:16:00,
2013-08-19 00:21:00,72.3,60.3,30.05,SSW,202,0.0,0.0,66,0.00,CLR,,0.00,WeatherDisplay:10.37,2013-08-19 05:21:00,
2013-08-19 00:26:00,72.3,60.3,30.05,SSW,202,0.0,0.0,66,0.00,CLR,,0.00,WeatherDisplay:10.37,2013-08-19 05:26:00,
2013-08-19 00:31:00,72.3,60.3,30.05,SSW,202,0.0,0.0,66,0.00,CLR,,0.00,WeatherDisplay:10.37,2013-08-19 05:31:00,
2013-08-19 00:36:00,72.3,60.3,30.05,SSW,202,0.0,0.0,66,0.00,CLR,,0.00,WeatherDisplay:10.37,2013-08-19 05:36:00,
2013-08-19 00:41:00,72.3,60.3,30.05,SSW,202,0.0,0.0,66,0.00,CLR,,0.00,WeatherDisplay:10.37,2013-08-19 05:41:00,
2013-08-19 00:46:00,72.3,60.3,30.05,SSW,202,0.0,0.0,66,0.00,CLR,,0.00,WeatherDisplay:10.37,2013-08-19 05:46:00,
2013-08-19 00:51:00,72.3,60.3,30.05,SSW,202,0.0,0.0,66,0.00,CLR,,0.00,WeatherDisplay:10.37,2013-08-19 05:51:00,
2013-08-19 00:56:00,72.3,60.3,30.05,SSW,202,0.0,0.0,66,0.00,CLR,,0.00,WeatherDisplay:10.37,2013-08-19 05:56:00,
2013-08-19 01:01:00,72.3,60.3,30.05,SSW,202,0.0,0.0,66,0.00,CLR,,0.00,WeatherDisplay:10.37,2013-08-19 06:01:00,
2013-08-19 01:06:00,63.0,58.4,30.07,SW,225,0.0,0.0,85,0.00,CLR,,0.00,WeatherDisplay:10.37,2013-08-19 06:06:00,
2013-08-19 01:11:00,62.8,58.2,30.07,SW,225,0.0,0.0,85,0.00,CLR,,0.00,WeatherDisplay:10.37,2013-08-19 06:11:00,
2013-08-19 01:16:00,62.8,58.5,30.07,SW,225,0.0,0.0,86,0.00,CLR,,0.00,WeatherDisplay:10.37,2013-08-19 06:16:00,
2013-08-19 01:21:00,62.4,58.2,30.07,SW,225,0.0,0.0,86,0.00,CLR,,0.00,WeatherDisplay:10.37,2013-08-19 06:21:00,
2013-08-19 01:26:00,62.4,58.2,30.07,SW,225,0.0,0.0,86,0.00,CLR,,0.00,WeatherDisplay:10.37,2013-08-19 06:26:00,
2013-08-19 01:31:00,62.6,58.4,30.07,SW,225,0.0,0.0,86,0.00,CLR,,0.00,WeatherDisplay:10.37,2013-08-19 06:31:00,
2013-08-19 01:36:00,62.4,58.2,30.07,SW,225,0.0,0.0,86,0.00,CLR,,0.00,WeatherDisplay:10.37,2013-08-19 06:36:00,
2013-08-19 01:41:00,62.4,57.8,30.06,SW,225,0.0,0.0,85,0.00,CLR,,0.00,WeatherDisplay:10.37,2013-08-19 06:41:00,
2013-08-19 01:46:00,62.4,57.8,30.07,SW,225,0.0,0.0,85,0.00,CLR,,0.00,WeatherDisplay:10.37,2013-08-19 06:46:00,
2013-08-19 01:51:00,62.2,57.7,30.06,SW,225,0.0,0.0,85,0.00,CLR,,0.00,WeatherDisplay:10.37,2013-08-19 06:51:00,
2013-08-19 01:56:00,62.1,57.2,30.06,SW,225,0.0,0.0,84,0.00,CLR,,0.00,WeatherDisplay:10.37,2013-08-19 06:56:00,
2013-08-19 02:01:00,61.5,56.6,30.06,SW,225,0.0,0.0,84,0.00,CLR,,0.00,WeatherDisplay:10.37,2013-08-19 07:01:00,
2013-08-19 02:06:00,61.0,57.1,30.06,SW,225,0.0,0.0,87,0.00,CLR,,0.00,WeatherDisplay:10.37,2013-08-19 07:06:00,
2013-08-19 02:11:00,60.4,56.6,30.06,SW,225,0.0,0.0,87,0.00,CLR,,0.00,WeatherDisplay:10.37,2013-08-19 07:11:00,
2013-08-19 02:16:00,60.3,56.7,30.06,SW,225,0.0,0.0,88,0.00,CLR,,0.00,WeatherDisplay:10.37,2013-08-19 07:16:00,
2013-08-19 02:21:00,60.1,56.8,30.06,SW,225,0.0,0.0,89,0.00,CLR,,0.00,WeatherDisplay:10.37,2013-08-19 07:21:00,
2013-08-19 02:26:00,59.9,56.6,30.06,SW,225,0.0,0.0,89,0.00,CLR,,0.00,WeatherDisplay:10.37,2013-08-19 07:26:00,
2013-08-19 02:31:00,59.7,56.5,30.05,SW,225,0.0,0.0,89,0.00,CLR,,0.00,WeatherDisplay:10.37,2013-08-19 07:31:00,
2013-08-19 02:36:00,59.7,57.1,30.05,SW,225,0.0,0.0,91,0.00,CLR,,0.00,WeatherDisplay:10.37,2013-08-19 07:36:00,
2013-08-19 02:41:00,59.4,57.0,30.05,SW,225,0.0,0.0,92,0.00,CLR,,0.00,WeatherDisplay:10.37,2013-08-19 07:41:00,
2013-08-19 02:46:00,59.2,56.9,30.05,SW,225,0.0,0.0,92,0.00,CLR,,0.00,WeatherDisplay:10.37,2013-08-19 07:46:00,
2013-08-19 02:51:00,59.2,57.2,30.05,SW,225,0.0,0.0,93,0.00,CLR,,0.00,WeatherDisplay:10.37,2013-08-19 07:51:00,
2013-08-19 02:56:00,59.2,57.2,30.05,SW,225,0.0,0.0,93,0.00,CLR,,0.00,WeatherDisplay:10.37,2013-08-19 07:56:00,
2013-08-19 03:01:00,59.2,57.5,30.05,SW,225,0.0,0.0,94,0.00,CLR,,0.00,WeatherDisplay:10.37,2013-08-19 08:01:00,
2013-08-19 03:06:00,59.2,57.5,30.06,SW,225,0.0,0.0,94,0.00,CLR,,0.00,WeatherDisplay:10.37,2013-08-19 08:06:00,
2013-08-19 03:11:00,59.2,57.7,30.05,SW,225,0.0,0.0,95,0.00,CLR,,0.00,WeatherDisplay:10.37,2013-08-19 08:11:00,
2013-08-19 03:16:00,59.2,57.7,30.06,SW,225,0.0,0.0,95,0.00,CLR,,0.00,WeatherDisplay:10.37,2013-08-19 08:16:00,
2013-08-19 03:21:00,59.4,57.9,30.06,SW,225,0.0,0.0,95,0.00,CLR,,0.00,WeatherDisplay:10.37,2013-08-19 08:21:00,
2013-08-19 03:26:00,59.4,58.2,30.06,SW,225,0.0,0.0,96,0.00,CLR,,0.00,WeatherDisplay:10.37,2013-08-19 08:26:00,
2013-08-19 03:31:00,59.5,58.4,30.06,SW,225,0.0,0.0,96,0.00,CLR,,0.00,WeatherDisplay:10.37,2013-08-19 08:31:00,
2013-08-19 03:36:00,59.7,58.6,30.06,SW,225,0.0,0.0,96,0.00,CLR,,0.00,WeatherDisplay:10.37,2013-08-19 08:36:00,
2013-08-19 03:41:00,59.7,58.6,30.06,SW,225,0.0,0.0,96,0.00,CLR,,0.00,WeatherDisplay:10.37,2013-08-19 08:41:00,
2013-08-19 03:46:00,59.7,58.3,30.06,SW,225,0.0,0.0,95,0.00,CLR,,0.00,WeatherDisplay:10.37,2013-08-19 08:46:00,
2013-08-19 03:51:00,59.7,58.3,30.05,SW,225,0.0,0.0,95,0.00,CLR,,0.00,WeatherDisplay:10.37,2013-08-19 08:51:00,
2013-08-19 03:56:00,59.7,58.3,30.05,SW,225,0.0,0.0,95,0.00,CLR,,0.00,WeatherDisplay:10.37,2013-08-19 08:56:00,
2013-08-19 04:01:00,59.7,58.3,30.05,SW,225,0.0,0.0,95,0.00,CLR,,0.00,WeatherDisplay:10.37,2013-08-19 09:01:00,
2013-08-19 04:06:00,59.9,58.5,30.05,SW,225,0.0,0.0,95,0.00,CLR,,0.00,WeatherDisplay:10.37,2013-08-19 09:06:00,
2013-08-19 04:11:00,59.7,58.3,30.05,SW,225,0.0,0.0,95,0.00,CLR,,0.00,WeatherDisplay:10.37,2013-08-19 09:11:00,
2013-08-19 04:16:00,59.4,57.9,30.06,SW,225,0.0,0.0,95,0.00,CLR,,0.00,WeatherDisplay:10.37,2013-08-19 09:16:00,
2013-08-19 04:21:00,59.4,57.9,30.06,SW,225,0.0,0.0,95,0.00,CLR,,0.00,WeatherDisplay:10.37,2013-08-19 09:21:00,
2013-08-19 04:26:00,59.2,57.7,30.06,SW,225,0.0,0.0,95,0.00,CLR,,0.00,WeatherDisplay:10.37,2013-08-19 09:26:00,
2013-08-19 04:31:00,59.2,57.7,30.06,SW,225,0.0,0.0,95,0.00,CLR,,0.00,WeatherDisplay:10.37,2013-08-19 09:31:00,
2013-08-19 04:36:00,59.0,57.6,30.06,SW,225,0.0,0.0,95,0.00,CLR,,0.00,WeatherDisplay:10.37,2013-08-19 09:36:00,
2013-08-19 04:45:00,58.5,57.0,30.06,SW,225,0.0,0.0,95,0.00,CLR,,0.00,WeatherDisplay:10.37,2013-08-19 09:45:00,
2013-08-19 04:50:00,58.5,57.3,30.06,SW,225,0.0,0.0,96,0.00,CLR,,0.00,WeatherDisplay:10.37,2013-08-19 09:50:00,
2013-08-19 04:55:00,58.3,57.1,30.05,South,180,0.0,0.0,96,0.00,CLR,,0.00,WeatherDisplay:10.37,2013-08-19 09:55:00,
2013-08-19 05:00:00,58.3,57.1,30.05,South,180,0.0,0.0,96,0.00,CLR,,0.00,WeatherDisplay:10.37,2013-08-19 10:00:00,
2013-08-19 05:05:00,58.3,57.1,30.05,South,180,0.0,0.0,96,0.00,CLR,,0.00,WeatherDisplay:10.37,2013-08-19 10:05:00,
2013-08-19 05:10:00,58.3,57.1,30.05,South,180,0.0,0.0,96,0.00,CLR,,0.00,WeatherDisplay:10.37,2013-08-19 10:10:00,
2013-08-19 05:15:00,58.3,57.1,30.05,South,180,0.0,0.0,96,0.00,CLR,,0.00,WeatherDisplay:10.37,2013-08-19 10:15:00,
2013-08-19 05:20:00,58.3,57.1,30.05,South,180,0.0,0.0,96,0.00,CLR,,0.00,WeatherDisplay:10.37,2013-08-19 10:20:00,
2013-08-19 05:25:00,58.3,57.1,30.05,South,180,0.0,0.0,96,0.00,CLR,,0.00,WeatherDisplay:10.37,2013-08-19 10:25:00,
2013-08-19 05:30:00,58.3,57.1,30.05,South,180,0.0,0.0,96,0.00,CLR,,0.00,WeatherDisplay:10.37,2013-08-19 10:30:00,
2013-08-19 05:35:00,58.3,57.1,30.05,South,180,0.0,0.0,96,0.00,CLR,,0.00,WeatherDisplay:10.37,2013-08-19 10:35:00,
2013-08-19 05:40:00,58.3,57.1,30.05,South,180,0.0,0.0,96,0.00,CLR,,0.00,WeatherDisplay:10.37,2013-08-19 10:40:00,
2013-08-19 05:45:00,58.3,57.1,30.05,South,180,0.0,0.0,96,0.00,CLR,,0.00,WeatherDisplay:10.37,2013-08-19 10:45:00,
2013-08-19 05:50:00,58.3,57.1,30.05,South,180,0.0,0.0,96,0.00,CLR,,0.00,WeatherDisplay:10.37,2013-08-19 10:50:00,
2013-08-19 05:55:00,58.3,57.1,30.05,South,180,0.0,0.0,96,0.00,CLR,,0.00,WeatherDisplay:10.37,2013-08-19 10:55:00,
2013-08-19 06:00:00,58.3,57.1,30.05,South,180,0.0,0.0,96,0.00,CLR,,0.00,WeatherDisplay:10.37,2013-08-19 11:00:00,
2013-08-19 06:05:00,58.3,57.1,30.05,South,180,0.0,0.0,96,0.00,CLR,,0.00,WeatherDisplay:10.37,2013-08-19 11:05:00,
2013-08-19 06:10:00,58.3,57.1,30.05,South,180,0.0,0.0,96,0.00,CLR,,0.00,WeatherDisplay:10.37,2013-08-19 11:10:00,
2013-08-19 06:15:00,58.3,57.1,30.05,South,180,0.0,0.0,96,0.00,CLR,,0.00,WeatherDisplay:10.37,2013-08-19 11:15:00,
2013-08-19 06:20:00,58.3,57.1,30.05,South,180,0.0,0.0,96,0.00,CLR,,0.00,WeatherDisplay:10.37,2013-08-19 11:20:00,
2013-08-19 06:25:00,58.3,57.1,30.05,South,180,0.0,0.0,96,0.00,CLR,,0.00,WeatherDisplay:10.37,2013-08-19 11:25:00,
2013-08-19 06:30:00,58.3,57.1,30.05,South,180,0.0,0.0,96,0.00,CLR,,0.00,WeatherDisplay:10.37,2013-08-19 11:30:00,
2013-08-19 06:35:00,58.3,57.1,30.05,South,180,0.0,0.0,96,0.00,CLR,,0.00,WeatherDisplay:10.37,2013-08-19 11:35:00,
2013-08-19 06:40:00,58.3,57.1,30.05,South,180,0.0,0.0,96,0.00,CLR,,0.00,WeatherDisplay:10.37,2013-08-19 11:40:00,
2013-08-19 06:45:00,58.3,57.1,30.05,South,180,0.0,0.0,96,0.00,CLR,,0.00,WeatherDisplay:10.37,2013-08-19 11:45:00,
2013-08-19 06:50:00,58.3,57.1,30.05,South,180,0.0,0.0,96,0.00,CLR,,0.00,WeatherDisplay:10.37,2013-08-19 11:50:00,
2013-08-19 06:55:00,58.3,57.1,30.05,South,180,0.0,0.0,96,0.00,CLR,,0.00,WeatherDisplay:10.37,2013-08-19 11:55:00,
2013-08-19 07:00:00,58.3,57.1,30.05,South,180,0.0,0.0,96,0.00,CLR,,0.00,WeatherDisplay:10.37,2013-08-19 12:00:00,
2013-08-19 07:05:00,58.3,57.1,30.05,South,180,0.0,0.0,96,0.00,CLR,,0.00,WeatherDisplay:10.37,2013-08-19 12:05:00,
2013-08-19 07:10:00,58.3,57.1,30.05,South,180,0.0,0.0,96,0.00,CLR,,0.00,WeatherDisplay:10.37,2013-08-19 12:10:00,
2013-08-19 07:15:00,58.3,57.1,30.05,South,180,0.0,0.0,96,0.00,CLR,,0.00,WeatherDisplay:10.37,2013-08-19 12:15:00,
2013-08-19 07:20:00,58.3,57.1,30.05,South,180,0.0,0.0,96,0.00,CLR,,0.00,WeatherDisplay:10.37,2013-08-19 12:20:00,
2013-08-19 07:25:00,58.3,57.1,30.05,South,180,0.0,0.0,96,0.00,CLR,,0.00,WeatherDisplay:10.37,2013-08-19 12:25:00,
2013-08-19 07:30:00,58.3,57.1,30.05,South,180,0.0,0.0,96,0.00,CLR,,0.00,WeatherDisplay:10.37,2013-08-19 12:30:00,
2013-08-19 07:35:00,58.3,57.1,30.05,South,180,0.0,0.0,96,0.00,CLR,,0.00,WeatherDisplay:10.37,2013-08-19 12:35:00,
2013-08-19 07:40:00,58.3,57.1,30.05,South,180,0.0,0.0,96,0.00,CLR,,0.00,WeatherDisplay:10.37,2013-08-19 12:40:00,
2013-08-19 07:45:00,58.3,57.1,30.05,South,180,0.0,0.0,96,0.00,CLR,,0.00,WeatherDisplay:10.37,2013-08-19 12:45:00,
2013-08-19 07:50:00,58.3,57.1,30.05,South,180,0.0,0.0,96,0.00,CLR,,0.00,WeatherDisplay:10.37,2013-08-19 12:50:00,
2013-08-19 07:55:00,58.3,57.1,30.05,South,180,0.0,0.0,96,0.00,CLR,,0.00,WeatherDisplay:10.37,2013-08-19 12:55:00,
2013-08-19 08:00:00,58.3,57.1,30.05,South,180,0.0,0.0,96,0.00,CLR,,0.00,WeatherDisplay:10.37,2013-08-19 13:00:00,
2013-08-19 08:05:00,58.3,57.1,30.05,South,180,0.0,0.0,96,0.00,CLR,,0.00,WeatherDisplay:10.37,2013-08-19 13:05:00,
2013-08-19 08:10:00,58.3,57.1,30.05,South,180,0.0,0.0,96,0.00,CLR,,0.00,WeatherDisplay:10.37,2013-08-19 13:10:00,
2013-08-19 08:15:00,58.3,57.1,30.05,South,180,0.0,0.0,96,0.00,CLR,,0.00,WeatherDisplay:10.37,2013-08-19 13:15:00,
2013-08-19 08:20:00,58.3,57.1,30.05,South,180,0.0,0.0,96,0.00,CLR,,0.00,WeatherDisplay:10.37,2013-08-19 13:20:00,
2013-08-19 08:25:00,58.3,57.1,30.05,South,180,0.0,0.0,96,0.00,CLR,,0.00,WeatherDisplay:10.37,2013-08-19 13:25:00,
2013-08-19 08:30:00,58.3,57.1,30.05,South,180,0.0,0.0,96,0.00,CLR,,0.00,WeatherDisplay:10.37,2013-08-19 13:30:00,
2013-08-19 08:35:00,58.3,57.1,30.05,South,180,0.0,0.0,96,0.00,CLR,,0.00,WeatherDisplay:10.37,2013-08-19 13:35:00,
2013-08-19 08:40:00,58.3,57.1,30.05,South,180,0.0,0.0,96,0.00,CLR,,0.00,WeatherDisplay:10.37,2013-08-19 13:40:00,
2013-08-19 08:45:00,58.3,57.1,30.05,South,180,0.0,0.0,96,0.00,CLR,,0.00,WeatherDisplay:10.37,2013-08-19 13:45:00,
2013-08-19 08:50:00,58.3,57.1,30.05,South,180,0.0,0.0,96,0.00,CLR,,0.00,WeatherDisplay:10.37,2013-08-19 13:50:00,
2013-08-19 08:55:00,58.3,57.1,30.05,South,180,0.0,0.0,96,0.00,CLR,,0.00,WeatherDisplay:10.37,2013-08-19 13:55:00,
2013-08-19 09:00:00,58.3,57.1,30.05,South,180,0.0,0.0,96,0.00,CLR,,0.00,WeatherDisplay:10.37,2013-08-19 14:00:00,
2013-08-19 09:05:00,58.3,57.1,30.05,South,180,0.0,0.0,96,0.00,CLR,,0.00,WeatherDisplay:10.37,2013-08-19 14:05:00,
2013-08-19 09:10:00,58.3,57.1,30.05,South,180,0.0,0.0,96,0.00,CLR,,0.00,WeatherDisplay:10.37,2013-08-19 14:10:00,
2013-08-19 09:15:00,58.3,57.1,30.05,South,180,0.0,0.0,96,0.00,CLR,,0.00,WeatherDisplay:10.37,2013-08-19 14:15:00,
2013-08-19 09:20:00,58.3,57.1,30.05,South,180,0.0,0.0,96,0.00,CLR,,0.00,WeatherDisplay:10.37,2013-08-19 14:20:00,
2013-08-19 09:25:00,58.3,57.1,30.05,South,180,0.0,0.0,96,0.00,CLR,,0.00,WeatherDisplay:10.37,2013-08-19 14:25:00,
2013-08-19 09:30:00,58.3,57.1,30.05,South,180,0.0,0.0,96,0.00,CLR,,0.00,WeatherDisplay:10.37,2013-08-19 14:30:00,
2013-08-19 09:35:00,58.3,57.1,30.05,South,180,0.0,0.0,96,0.00,CLR,,0.00,WeatherDisplay:10.37,2013-08-19 14:35:00,
2013-08-19 09:40:00,58.3,57.1,30.05,South,180,0.0,0.0,96,0.00,CLR,,0.00,WeatherDisplay:10.37,2013-08-19 14:40:00,
2013-08-19 09:45:00,58.3,57.1,30.05,South,180,0.0,0.0,96,0.00,CLR,,0.00,WeatherDisplay:10.37,2013-08-19 14:45:00,
2013-08-19 09:50:00,58.3,57.1,30.05,South,180,0.0,0.0,96,0.00,CLR,,0.00,WeatherDisplay:10.37,2013-08-19 14:50:00,
2013-08-19 09:55:00,58.3,57.1,30.05,South,180,0.0,0.0,96,0.00,CLR,,0.00,WeatherDisplay:10.37,2013-08-19 14:55:00,
2013-08-19 10:00:00,58.3,57.1,30.05,South,180,0.0,0.0,96,0.00,CLR,,0.00,WeatherDisplay:10.37,2013-08-19 15:00:00,
2013-08-19 10:05:00,58.3,57.1,30.05,South,180,0.0,0.0,96,0.00,CLR,,0.00,WeatherDisplay:10.37,2013-08-19 15:05:00,
2013-08-19 10:10:00,58.3,57.1,30.05,South,180,0.0,0.0,96,0.00,CLR,,0.00,WeatherDisplay:10.37,2013-08-19 15:10:00,
2013-08-19 10:15:00,58.3,57.1,30.05,South,180,0.0,0.0,96,0.00,CLR,,0.00,WeatherDisplay:10.37,2013-08-19 15:15:00,
2013-08-19 10:20:00,58.3,57.1,30.05,South,180,0.0,0.0,96,0.00,CLR,,0.00,WeatherDisplay:10.37,2013-08-19 15:20:00,
2013-08-19 10:25:00,58.3,57.1,30.05,South,180,0.0,0.0,96,0.00,CLR,,0.00,WeatherDisplay:10.37,2013-08-19 15:25:00,
2013-08-19 10:30:00,58.3,57.1,30.05,South,180,0.0,0.0,96,0.00,CLR,,0.00,WeatherDisplay:10.37,2013-08-19 15:30:00,
2013-08-19 10:35:00,58.3,57.1,30.05,South,180,0.0,0.0,96,0.00,CLR,,0.00,WeatherDisplay:10.37,2013-08-19 15:35:00,
2013-08-19 10:40:00,58.3,57.1,30.05,South,180,0.0,0.0,96,0.00,CLR,,0.00,WeatherDisplay:10.37,2013-08-19 15:40:00,
2013-08-19 10:45:00,58.3,57.1,30.05,South,180,0.0,0.0,96,0.00,CLR,,0.00,WeatherDisplay:10.37,2013-08-19 15:45:00,
2013-08-19 10:50:00,58.3,57.1,30.05,South,180,0.0,0.0,96,0.00,CLR,,0.00,WeatherDisplay:10.37,2013-08-19 15:50:00,
2013-08-19 10:55:00,58.3,57.1,30.05,South,180,0.0,0.0,96,0.00,CLR,,0.00,WeatherDisplay:10.37,2013-08-19 15:55:00,
2013-08-19 11:00:00,58.3,57.1,30.05,South,180,0.0,0.0,96,0.00,CLR,,0.00,WeatherDisplay:10.37,2013-08-19 16:00:00,
2013-08-19 11:05:00,58.3,57.1,30.05,South,180,0.0,0.0,96,0.00,CLR,,0.00,WeatherDisplay:10.37,2013-08-19 16:05:00,
2013-08-19 11:10:00,58.3,57.1,30.05,South,180,0.0,0.0,96,0.00,CLR,,0.00,WeatherDisplay:10.37,2013-08-19 16:10:00,
2013-08-19 11:15:00,58.3,57.1,30.05,South,180,0.0,0.0,96,0.00,CLR,,0.00,WeatherDisplay:10.37,2013-08-19 16:15:00,
2013-08-19 11:20:00,58.3,57.1,30.05,South,180,0.0,0.0,96,0.00,CLR,,0.00,WeatherDisplay:10.37,2013-08-19 16:20:00,
2013-08-19 11:25:00,58.3,57.1,30.05,South,180,0.0,0.0,96,0.00,CLR,,0.00,WeatherDisplay:10.37,2013-08-19 16:25:00,
2013-08-19 11:31:00,58.3,57.1,30.05,South,180,0.0,0.0,96,0.00,CLR,,0.00,WeatherDisplay:10.37,2013-08-19 16:31:00,
2013-08-19 11:36:00,58.3,57.1,30.05,South,180,0.0,0.0,96,0.00,CLR,,0.00,WeatherDisplay:10.37,2013-08-19 16:36:00,
2013-08-19 11:41:00,58.3,57.1,30.05,South,180,0.0,0.0,96,0.00,CLR,,0.00,WeatherDisplay:10.37,2013-08-19 16:41:00,
2013-08-19 11:46:00,58.3,57.1,30.05,South,180,0.0,0.0,96,0.00,CLR,,0.00,WeatherDisplay:10.37,2013-08-19 16:46:00,
2013-08-19 11:51:00,58.3,57.1,30.05,South,180,0.0,0.0,96,0.00,CLR,,0.00,WeatherDisplay:10.37,2013-08-19 16:51:00,
2013-08-19 11:56:00,58.3,57.1,30.05,South,180,0.0,0.0,96,0.00,CLR,,0.00,WeatherDisplay:10.37,2013-08-19 16:56:00,
2013-08-19 12:01:00,58.3,57.1,30.05,South,180,0.0,0.0,96,0.00,CLR,,0.00,WeatherDisplay:10.37,2013-08-19 17:01:00,
2013-08-19 12:06:00,58.3,57.1,30.05,South,180,0.0,0.0,96,0.00,CLR,,0.00,WeatherDisplay:10.37,2013-08-19 17:06:00,
2013-08-19 12:11:00,58.3,57.1,30.05,South,180,0.0,0.0,96,0.00,CLR,,0.00,WeatherDisplay:10.37,2013-08-19 17:11:00,
2013-08-19 12:16:00,58.3,57.1,30.05,South,180,0.0,0.0,96,0.00,CLR,,0.00,WeatherDisplay:10.37,2013-08-19 17:16:00,
2013-08-19 12:21:00,58.3,57.1,30.05,South,180,0.0,0.0,96,0.00,CLR,,0.00,WeatherDisplay:10.37,2013-08-19 17:21:00,
2013-08-19 12:26:00,58.3,57.1,30.05,South,180,0.0,0.0,96,0.00,CLR,,0.00,WeatherDisplay:10.37,2013-08-19 17:26:00,
2013-08-19 12:31:00,58.3,57.1,30.05,South,180,0.0,0.0,96,0.00,CLR,,0.00,WeatherDisplay:10.37,2013-08-19 17:31:00,
2013-08-19 12:36:00,58.3,57.1,30.05,South,180,0.0,0.0,96,0.00,CLR,,0.00,WeatherDisplay:10.37,2013-08-19 17:36:00,
2013-08-19 12:41:00,58.3,57.1,30.05,South,180,0.0,0.0,96,0.00,CLR,,0.00,WeatherDisplay:10.37,2013-08-19 17:41:00,
2013-08-19 12:46:00,58.3,57.1,30.05,South,180,0.0,0.0,96,0.00,CLR,,0.00,WeatherDisplay:10.37,2013-08-19 17:46:00,
2013-08-19 12:51:00,58.3,57.1,30.05,South,180,0.0,0.0,96,0.00,CLR,,0.00,WeatherDisplay:10.37,2013-08-19 17:51:00,
2013-08-19 12:56:00,58.3,57.1,30.05,South,180,0.0,0.0,96,0.00,CLR,,0.00,WeatherDisplay:10.37,2013-08-19 17:56:00,
2013-08-19 13:01:00,58.3,57.1,30.05,South,180,0.0,0.0,96,0.00,CLR,,0.00,WeatherDisplay:10.37,2013-08-19 18:01:00,
2013-08-19 13:06:00,58.3,57.1,30.05,South,180,0.0,0.0,96,0.00,CLR,,0.00,WeatherDisplay:10.37,2013-08-19 18:06:00,
2013-08-19 13:11:00,58.3,57.1,30.05,South,180,0.0,0.0,96,0.00,CLR,,0.00,WeatherDisplay:10.37,2013-08-19 18:11:00,
2013-08-19 13:16:00,58.3,57.1,30.05,South,180,0.0,0.0,96,0.00,CLR,,0.00,WeatherDisplay:10.37,2013-08-19 18:16:00,
2013-08-19 13:21:00,58.3,57.1,30.05,South,180,0.0,0.0,96,0.00,CLR,,0.00,WeatherDisplay:10.37,2013-08-19 18:21:00,
2013-08-19 13:26:00,58.3,57.1,30.05,South,180,0.0,0.0,96,0.00,CLR,,0.00,WeatherDisplay:10.37,2013-08-19 18:26:00,
2013-08-19 13:31:00,58.3,57.1,30.05,South,180,0.0,0.0,96,0.00,CLR,,0.00,WeatherDisplay:10.37,2013-08-19 18:31:00,
2013-08-19 13:36:00,58.3,57.1,30.05,South,180,0.0,0.0,96,0.00,CLR,,0.00,WeatherDisplay:10.37,2013-08-19 18:36:00,
2013-08-19 13:41:00,58.3,57.1,30.05,South,180,0.0,0.0,96,0.00,CLR,,0.00,WeatherDisplay:10.37,2013-08-19 18:41:00,
2013-08-19 13:46:00,58.3,57.1,30.05,South,180,0.0,0.0,96,0.00,CLR,,0.00,WeatherDisplay:10.37,2013-08-19 18:46:00,
2013-08-19 13:51:00,58.3,57.1,30.05,South,180,0.0,0.0,96,0.00,CLR,,0.00,WeatherDisplay:10.37,2013-08-19 18:51:00,
2013-08-19 13:56:00,58.3,57.1,30.05,South,180,0.0,0.0,96,0.00,CLR,,0.00,WeatherDisplay:10.37,2013-08-19 18:56:00,
2013-08-19 14:01:00,58.3,57.1,30.05,South,180,0.0,0.0,96,0.00,CLR,,0.00,WeatherDisplay:10.37,2013-08-19 19:01:00,
2013-08-19 14:06:00,58.3,57.1,30.05,South,180,0.0,0.0,96,0.00,CLR,,0.00,WeatherDisplay:10.37,2013-08-19 19:06:00,
2013-08-19 14:11:00,58.3,57.1,30.05,South,180,0.0,0.0,96,0.00,CLR,,0.00,WeatherDisplay:10.37,2013-08-19 19:11:00,
2013-08-19 14:16:00,58.3,57.1,30.05,South,180,0.0,0.0,96,0.00,CLR,,0.00,WeatherDisplay:10.37,2013-08-19 19:16:00,
2013-08-19 14:21:00,58.3,57.1,30.05,South,180,0.0,0.0,96,0.00,CLR,,0.00,WeatherDisplay:10.37,2013-08-19 19:21:00,
2013-08-19 14:26:00,58.3,57.1,30.05,South,180,0.0,0.0,96,0.00,CLR,,0.00,WeatherDisplay:10.37,2013-08-19 19:26:00,
2013-08-19 14:31:00,58.3,57.1,30.05,South,180,0.0,0.0,96,0.00,CLR,,0.00,WeatherDisplay:10.37,2013-08-19 19:31:00,
2013-08-19 14:36:00,58.3,57.1,30.05,South,180,0.0,0.0,96,0.00,CLR,,0.00,WeatherDisplay:10.37,2013-08-19 19:36:00,
2013-08-19 14:41:00,58.3,57.1,30.05,South,180,0.0,0.0,96,0.00,CLR,,0.00,WeatherDisplay:10.37,2013-08-19 19:41:00,
2013-08-19 14:46:00,58.3,57.1,30.05,South,180,0.0,0.0,96,0.00,CLR,,0.00,WeatherDisplay:10.37,2013-08-19 19:46:00,
2013-08-19 14:51:00,58.3,57.1,30.05,South,180,0.0,0.0,96,0.00,CLR,,0.00,WeatherDisplay:10.37,2013-08-19 19:51:00,
2013-08-19 14:56:00,58.3,57.1,30.05,South,180,0.0,0.0,96,0.00,CLR,,0.00,WeatherDisplay:10.37,2013-08-19 19:56:00,
2013-08-19 15:01:00,58.3,57.1,30.05,South,180,0.0,0.0,96,0.00,CLR,,0.00,WeatherDisplay:10.37,2013-08-19 20:01:00,
2013-08-19 15:06:00,58.3,57.1,30.05,South,180,0.0,0.0,96,0.00,CLR,,0.00,WeatherDisplay:10.37,2013-08-19 20:06:00,
2013-08-19 15:11:00,58.3,57.1,30.05,South,180,0.0,0.0,96,0.00,CLR,,0.00,WeatherDisplay:10.37,2013-08-19 20:11:00,
2013-08-19 15:16:00,58.3,57.1,30.05,South,180,0.0,0.0,96,0.00,CLR,,0.00,WeatherDisplay:10.37,2013-08-19 20:16:00,
2013-08-19 15:22:00,58.3,57.1,30.05,South,180,0.0,0.0,96,0.00,CLR,,0.00,WeatherDisplay:10.37,2013-08-19 20:22:00,
2013-08-19 15:27:00,58.3,57.1,30.05,South,180,0.0,0.0,96,0.00,CLR,,0.00,WeatherDisplay:10.37,2013-08-19 20:27:00,
2013-08-19 15:32:00,58.3,57.1,30.05,South,180,0.0,0.0,96,0.00,CLR,,0.00,WeatherDisplay:10.37,2013-08-19 20:32:00,
2013-08-19 15:37:00,58.3,57.1,30.05,South,180,0.0,0.0,96,0.00,CLR,,0.00,WeatherDisplay:10.37,2013-08-19 20:37:00,
2013-08-19 15:42:00,58.3,57.1,30.05,South,180,0.0,0.0,96,0.00,CLR,,0.00,WeatherDisplay:10.37,2013-08-19 20:42:00,
2013-08-19 15:47:00,58.3,57.1,30.05,South,180,0.0,0.0,96,0.00,CLR,,0.00,WeatherDisplay:10.37,2013-08-19 20:47:00,
2013-08-19 15:52:00,58.3,57.1,30.05,South,180,0.0,0.0,96,0.00,CLR,,0.00,WeatherDisplay:10.37,2013-08-19 20:52:00,
2013-08-19 15:57:00,58.3,57.1,30.05,South,180,0.0,0.0,96,0.00,CLR,,0.00,WeatherDisplay:10.37,2013-08-19 20:57:00,
2013-08-19 16:02:00,58.3,57.1,30.05,South,180,0.0,0.0,96,0.00,CLR,,0.00,WeatherDisplay:10.37,2013-08-19 21:02:00,
2013-08-19 16:07:00,58.3,57.1,30.05,South,180,0.0,0.0,96,0.00,CLR,,0.00,WeatherDisplay:10.37,2013-08-19 21:07:00,
2013-08-19 16:12:00,58.3,57.1,30.05,South,180,0.0,0.0,96,0.00,CLR,,0.00,WeatherDisplay:10.37,2013-08-19 21:12:00,
2013-08-19 16:17:00,58.3,57.1,30.05,South,180,0.0,0.0,96,0.00,CLR,,0.00,WeatherDisplay:10.37,2013-08-19 21:17:00,
2013-08-19 16:22:00,58.3,57.1,30.05,South,180,0.0,0.0,96,0.00,CLR,,0.00,WeatherDisplay:10.37,2013-08-19 21:22:00,
2013-08-19 16:27:00,58.3,57.1,30.05,South,180,0.0,0.0,96,0.00,CLR,,0.00,WeatherDisplay:10.37,2013-08-19 21:27:00,
2013-08-19 16:32:00,58.3,57.1,30.05,South,180,0.0,0.0,96,0.00,CLR,,0.00,WeatherDisplay:10.37,2013-08-19 21:32:00,
2013-08-19 16:37:00,58.3,57.1,30.05,South,180,0.0,0.0,96,0.00,CLR,,0.00,WeatherDisplay:10.37,2013-08-19 21:37:00,
2013-08-19 16:42:00,58.3,57.1,30.05,South,180,0.0,0.0,96,0.00,CLR,,0.00,WeatherDisplay:10.37,2013-08-19 21:42:00,
2013-08-19 16:47:00,58.3,57.1,30.05,South,180,0.0,0.0,96,0.00,CLR,,0.00,WeatherDisplay:10.37,2013-08-19 21:47:00,
2013-08-19 16:52:00,58.3,57.1,30.05,South,180,0.0,0.0,96,0.00,CLR,,0.00,WeatherDisplay:10.37,2013-08-19 21:52:00,
2013-08-19 16:57:00,58.3,57.1,30.05,South,180,0.0,0.0,96,0.00,CLR,,0.00,WeatherDisplay:10.37,2013-08-19 21:57:00,
2013-08-19 17:02:00,58.3,57.1,30.05,South,180,0.0,0.0,96,0.00,CLR,,0.00,WeatherDisplay:10.37,2013-08-19 22:02:00,
2013-08-19 17:07:00,58.3,57.1,30.05,South,180,0.0,0.0,96,0.00,CLR,,0.00,WeatherDisplay:10.37,2013-08-19 22:07:00,
2013-08-19 17:12:00,58.3,57.1,30.05,South,180,0.0,0.0,96,0.00,CLR,,0.00,WeatherDisplay:10.37,2013-08-19 22:12:00,
2013-08-19 17:17:00,58.3,57.1,30.05,South,180,0.0,0.0,96,0.00,CLR,,0.00,WeatherDisplay:10.37,2013-08-19 22:17:00,
2013-08-19 17:22:00,58.3,57.1,30.05,South,180,0.0,0.0,96,0.00,CLR,,0.00,WeatherDisplay:10.37,2013-08-19 22:22:00,
2013-08-19 17:27:00,58.3,57.1,30.05,South,180,0.0,0.0,96,0.00,CLR,,0.00,WeatherDisplay:10.37,2013-08-19 22:27:00,
2013-08-19 17:32:00,58.3,57.1,30.05,South,180,0.0,0.0,96,0.00,CLR,,0.00,WeatherDisplay:10.37,2013-08-19 22:32:00,
2013-08-19 17:37:00,58.3,57.1,30.05,South,180,0.0,0.0,96,0.00,CLR,,0.00,WeatherDisplay:10.37,2013-08-19 22:37:00,
2013-08-19 17:42:00,58.3,57.1,30.05,South,180,0.0,0.0,96,0.00,CLR,,0.00,WeatherDisplay:10.37,2013-08-19 22:42:00,
2013-08-19 17:47:00,58.3,57.1,30.05,South,180,0.0,0.0,96,0.00,CLR,,0.00,WeatherDisplay:10.37,2013-08-19 22:47:00,
2013-08-19 17:52:00,58.3,57.1,30.05,South,180,0.0,0.0,96,0.00,CLR,,0.00,WeatherDisplay:10.37,2013-08-19 22:52:00,
2013-08-19 17:57:00,58.3,57.1,30.05,South,180,0.0,0.0,96,0.00,CLR,,0.00,WeatherDisplay:10.37,2013-08-19 22:57:00,
2013-08-19 18:02:00,58.3,57.1,30.05,South,180,0.0,0.0,96,0.00,CLR,,0.00,WeatherDisplay:10.37,2013-08-19 23:02:00,
2013-08-19 18:07:00,58.3,57.1,30.05,South,180,0.0,0.0,96,0.00,CLR,,0.00,WeatherDisplay:10.37,2013-08-19 23:07:00,
2013-08-19 18:12:00,58.3,57.1,30.05,South,180,0.0,0.0,96,0.00,CLR,,0.00,WeatherDisplay:10.37,2013-08-19 23:12:00,
2013-08-19 18:17:00,58.3,57.1,30.05,South,180,0.0,0.0,96,0.00,CLR,,0.00,WeatherDisplay:10.37,2013-08-19 23:17:00,
2013-08-19 18:22:00,58.3,57.1,30.05,South,180,0.0,0.0,96,0.00,CLR,,0.00,WeatherDisplay:10.37,2013-08-19 23:22:00,
2013-08-19 18:27:00,58.3,57.1,30.05,South,180,0.0,0.0,96,0.00,CLR,,0.00,WeatherDisplay:10.37,2013-08-19 23:27:00,
2013-08-19 18:32:00,58.3,57.1,30.05,South,180,0.0,0.0,96,0.00,CLR,,0.00,WeatherDisplay:10.37,2013-08-19 23:32:00,
2013-08-19 18:37:00,58.3,57.1,30.05,South,180,0.0,0.0,96,0.00,CLR,,0.00,WeatherDisplay:10.37,2013-08-19 23:37:00,
2013-08-19 18:42:00,58.3,57.1,30.05,South,180,0.0,0.0,96,0.00,CLR,,0.00,WeatherDisplay:10.37,2013-08-19 23:42:00,
2013-08-19 18:47:00,58.3,57.1,30.05,South,180,0.0,0.0,96,0.00,CLR,,0.00,WeatherDisplay:10.37,2013-08-19 23:47:00,
2013-08-19 18:52:00,58.3,57.1,30.05,South,180,0.0,0.0,96,0.00,CLR,,0.00,WeatherDisplay:10.37,2013-08-19 23:52:00,
2013-08-19 18:57:00,58.3,57.1,30.05,South,180,0.0,0.0,96,0.00,CLR,,0.00,WeatherDisplay:10.37,2013-08-19 23:57:00,
2013-08-19 19:02:00,58.3,57.1,30.05,South,180,0.0,0.0,96,0.00,CLR,,0.00,WeatherDisplay:10.37,2013-08-20 00:02:00,
2013-08-19 19:07:00,58.3,57.1,30.05,South,180,0.0,0.0,96,0.00,CLR,,0.00,WeatherDisplay:10.37,2013-08-20 00:07:00,
2013-08-19 19:12:00,58.3,57.1,30.05,South,180,0.0,0.0,96,0.00,CLR,,0.00,WeatherDisplay:10.37,2013-08-20 00:12:00,
2013-08-19 19:17:00,58.3,57.1,30.05,South,180,0.0,0.0,96,0.00,CLR,,0.00,WeatherDisplay:10.37,2013-08-20 00:17:00,
2013-08-19 19:22:00,58.3,57.1,30.05,South,180,0.0,0.0,96,0.00,CLR,,0.00,WeatherDisplay:10.37,2013-08-20 00:22:00,
2013-08-19 19:27:00,58.3,57.1,30.05,South,180,0.0,0.0,96,0.00,CLR,,0.00,WeatherDisplay:10.37,2013-08-20 00:27:00,
2013-08-19 19:32:00,58.3,57.1,30.05,South,180,0.0,0.0,96,0.00,CLR,,0.00,WeatherDisplay:10.37,2013-08-20 00:32:00,
2013-08-19 19:37:00,58.3,57.1,30.05,South,180,0.0,0.0,96,0.00,CLR,,0.00,WeatherDisplay:10.37,2013-08-20 00:37:00,
2013-08-19 19:42:00,58.3,57.1,30.05,South,180,0.0,0.0,96,0.00,CLR,,0.00,WeatherDisplay:10.37,2013-08-20 00:42:00,
2013-08-19 19:47:00,58.3,57.1,30.05,South,180,0.0,0.0,96,0.00,CLR,,0.00,WeatherDisplay:10.37,2013-08-20 00:47:00,
2013-08-19 19:52:00,58.3,57.1,30.05,South,180,0.0,0.0,96,0.00,CLR,,0.00,WeatherDisplay:10.37,2013-08-20 00:52:00,
2013-08-19 19:57:00,58.3,57.1,30.05,South,180,0.0,0.0,96,0.00,CLR,,0.00,WeatherDisplay:10.37,2013-08-20 00:57:00,
2013-08-19 20:02:00,58.3,57.1,30.05,South,180,0.0,0.0,96,0.00,CLR,,0.00,WeatherDisplay:10.37,2013-08-20 01:02:00,
2013-08-19 20:07:00,58.3,57.1,30.05,South,180,0.0,0.0,96,0.00,CLR,,0.00,WeatherDisplay:10.37,2013-08-20 01:07:00,
2013-08-19 20:12:00,58.3,57.1,30.05,South,180,0.0,0.0,96,0.00,CLR,,0.00,WeatherDisplay:10.37,2013-08-20 01:12:00,
2013-08-19 20:17:00,58.3,57.1,30.05,South,180,0.0,0.0,96,0.00,CLR,,0.00,WeatherDisplay:10.37,2013-08-20 01:17:00,
2013-08-19 20:22:00,58.3,57.1,30.05,South,180,0.0,0.0,96,0.00,CLR,,0.00,WeatherDisplay:10.37,2013-08-20 01:22:00,
2013-08-19 20:27:00,58.3,57.1,30.05,South,180,0.0,0.0,96,0.00,CLR,,0.00,WeatherDisplay:10.37,2013-08-20 01:27:00,
2013-08-19 20:32:00,58.3,57.1,30.05,South,180,0.0,0.0,96,0.00,CLR,,0.00,WeatherDisplay:10.37,2013-08-20 01:32:00,
2013-08-19 20:37:00,58.3,57.1,30.05,South,180,0.0,0.0,96,0.00,CLR,,0.00,WeatherDisplay:10.37,2013-08-20 01:37:00,
2013-08-19 20:42:00,58.3,57.1,30.05,South,180,0.0,0.0,96,0.00,CLR,,0.00,WeatherDisplay:10.37,2013-08-20 01:42:00,
2013-08-19 20:47:00,58.3,57.1,30.05,South,180,0.0,0.0,96,0.00,CLR,,0.00,WeatherDisplay:10.37,2013-08-20 01:47:00,
2013-08-19 20:52:00,58.3,57.1,30.05,South,180,0.0,0.0,96,0.00,CLR,,0.00,WeatherDisplay:10.37,2013-08-20 01:52:00,
2013-08-19 20:57:00,58.3,57.1,30.05,South,180,0.0,0.0,96,0.00,CLR,,0.00,WeatherDisplay:10.37,2013-08-20 01:57:00,
2013-08-19 21:02:00,58.3,57.1,30.05,South,180,0.0,0.0,96,0.00,CLR,,0.00,WeatherDisplay:10.37,2013-08-20 02:02:00,
2013-08-19 21:07:00,58.3,57.1,30.05,South,180,0.0,0.0,96,0.00,CLR,,0.00,WeatherDisplay:10.37,2013-08-20 02:07:00,
2013-08-19 21:12:00,58.3,57.1,30.05,South,180,0.0,0.0,96,0.00,CLR,,0.00,WeatherDisplay:10.37,2013-08-20 02:12:00,
2013-08-19 21:17:00,58.3,57.1,30.05,South,180,0.0,0.0,96,0.00,CLR,,0.00,WeatherDisplay:10.37,2013-08-20 02:17:00,
2013-08-19 21:22:00,58.3,57.1,30.05,South,180,0.0,0.0,96,0.00,CLR,,0.00,WeatherDisplay:10.37,2013-08-20 02:22:00,
2013-08-19 21:27:00,58.3,57.1,30.05,South,180,0.0,0.0,96,0.00,CLR,,0.00,WeatherDisplay:10.37,2013-08-20 02:27:00,
2013-08-19 21:32:00,58.3,57.1,30.05,South,180,0.0,0.0,96,0.00,CLR,,0.00,WeatherDisplay:10.37,2013-08-20 02:32:00,
2013-08-19 21:37:00,58.3,57.1,30.05,South,180,0.0,0.0,96,0.00,CLR,,0.00,WeatherDisplay:10.37,2013-08-20 02:37:00,
2013-08-19 21:42:00,58.3,57.1,30.05,South,180,0.0,0.0,96,0.00,CLR,,0.00,WeatherDisplay:10.37,2013-08-20 02:42:00,
2013-08-19 21:47:00,58.3,57.1,30.05,South,180,0.0,0.0,96,0.00,CLR,,0.00,WeatherDisplay:10.37,2013-08-20 02:47:00,
2013-08-19 21:52:00,58.3,57.1,30.05,South,180,0.0,0.0,96,0.00,CLR,,0.00,WeatherDisplay:10.37,2013-08-20 02:52:00,
2013-08-19 21:57:00,58.3,57.1,30.05,South,180,0.0,0.0,96,0.00,CLR,,0.00,WeatherDisplay:10.37,2013-08-20 02:57:00,
2013-08-19 22:02:00,58.3,57.1,30.05,South,180,0.0,0.0,96,0.00,CLR,,0.00,WeatherDisplay:10.37,2013-08-20 03:02:00,
2013-08-19 22:07:00,58.3,57.1,30.05,South,180,0.0,0.0,96,0.00,CLR,,0.00,WeatherDisplay:10.37,2013-08-20 03:07:00,
2013-08-19 22:12:00,58.3,57.1,30.05,South,180,0.0,0.0,96,0.00,CLR,,0.00,WeatherDisplay:10.37,2013-08-20 03:12:00,
2013-08-19 22:17:00,58.3,57.1,30.05,South,180,0.0,0.0,96,0.00,CLR,,0.00,WeatherDisplay:10.37,2013-08-20 03:17:00,
2013-08-19 22:22:00,58.3,57.1,30.05,South,180,0.0,0.0,96,0.00,CLR,,0.00,WeatherDisplay:10.37,2013-08-20 03:22:00,
2013-08-19 22:27:00,58.3,57.1,30.05,South,180,0.0,0.0,96,0.00,CLR,,0.00,WeatherDisplay:10.37,2013-08-20 03:27:00,
2013-08-19 22:32:00,58.3,57.1,30.05,South,180,0.0,0.0,96,0.00,CLR,,0.00,WeatherDisplay:10.37,2013-08-20 03:32:00,
2013-08-19 22:37:00,58.3,57.1,30.05,South,180,0.0,0.0,96,0.00,CLR,,0.00,WeatherDisplay:10.37,2013-08-20 03:37:00,
2013-08-19 22:42:00,58.3,57.1,30.05,South,180,0.0,0.0,96,0.00,CLR,,0.00,WeatherDisplay:10.37,2013-08-20 03:42:00,
2013-08-19 22:47:00,58.3,57.1,30.05,South,180,0.0,0.0,96,0.00,CLR,,0.00,WeatherDisplay:10.37,2013-08-20 03:47:00,
2013-08-19 22:52:00,58.3,57.1,30.05,South,180,0.0,0.0,96,0.00,CLR,,0.00,WeatherDisplay:10.37,2013-08-20 03:52:00,
2013-08-19 22:57:00,58.3,57.1,30.05,South,180,0.0,0.0,96,0.00,CLR,,0.00,WeatherDisplay:10.37,2013-08-20 03:57:00,
2013-08-19 23:01:00,58.3,57.1,30.05,South,180,0.0,0.0,96,0.00,CLR,,0.00,WeatherDisplay:10.37,2013-08-20 04:01:00,
2013-08-19 23:06:00,58.3,57.1,30.05,South,180,0.0,0.0,96,0.00,CLR,,0.00,WeatherDisplay:10.37,2013-08-20 04:06:00,
2013-08-19 23:11:00,58.3,57.1,30.05,South,180,0.0,0.0,96,0.00,CLR,,0.00,WeatherDisplay:10.37,2013-08-20 04:11:00,
2013-08-19 23:16:00,58.3,57.1,30.05,South,180,0.0,0.0,96,0.00,CLR,,0.00,WeatherDisplay:10.37,2013-08-20 04:16:00,
2013-08-19 23:21:00,58.3,57.1,30.05,South,180,0.0,0.0,96,0.00,CLR,,0.00,WeatherDisplay:10.37,2013-08-20 04:21:00,
2013-08-19 23:26:00,58.3,57.1,30.05,South,180,0.0,0.0,96,0.00,CLR,,0.00,WeatherDisplay:10.37,2013-08-20 04:26:00,
2013-08-19 23:31:00,58.3,57.1,30.05,South,180,0.0,0.0,96,0.00,CLR,,0.00,WeatherDisplay:10.37,2013-08-20 04:31:00,
2013-08-19 23:36:00,58.3,57.1,30.05,South,180,0.0,0.0,96,0.00,CLR,,0.00,WeatherDisplay:10.37,2013-08-20 04:36:00,
2013-08-19 23:41:00,58.3,57.1,30.05,South,180,0.0,0.0,96,0.00,CLR,,0.00,WeatherDisplay:10.37,2013-08-20 04:41:00,
2013-08-19 23:46:00,58.3,57.1,30.05,South,180,0.0,0.0,96,0.00,CLR,,0.00,WeatherDisplay:10.37,2013-08-20 04:46:00,
2013-08-19 23:51:00,58.3,57.1,30.05,South,180,0.0,0.0,96,0.00,CLR,,0.00,WeatherDisplay:10.37,2013-08-20 04:51:00,
2013-08-19 23:56:00,58.3,57.1,30.05,South,180,0.0,0.0,96,0.00,CLR,,0.00,WeatherDisplay:10.37,2013-08-20 04:56:00,